EZY2168 EHAM-EGCC

Flight info

Callsign EZY2168
Flight time 0h 59m
Altitude 34000
Route BERGI L60 OTBED
Aircraft A320/M-SDE2E3FGHIJ1RWXYZ/LB1

Departure

Time 2026-04-18 09:31
Airport Amsterdam Airport Schiphol (EHAM)

Arrival

Time 2026-04-18 10:30
Airport Manchester Airport (EGCC)
Time Latitude Longitude Altitude Speed Heading
2026-04-18 09:11 52.30947 4.75244 -1 ft 0 kts 148°
2026-04-18 09:21 52.30963 4.75230 -1 ft 4 kts 167°
2026-04-18 09:21 52.30985 4.75215 -1 ft 4 kts 122°
2026-04-18 09:21 52.30990 4.75198 -1 ft 0 kts 117°
2026-04-18 09:24 52.30989 4.75207 -1 ft 4 kts 101°
2026-04-18 09:25 52.31028 4.75280 -1 ft 10 kts 37°
2026-04-18 09:25 52.31073 4.75336 -1 ft 9 kts 37°
2026-04-18 09:25 52.31121 4.75398 -1 ft 9 kts 34°
2026-04-18 09:25 52.31200 4.75433 -1 ft 15 kts
2026-04-18 09:26 52.31310 4.75426 -1 ft 16 kts 357°
2026-04-18 09:26 52.31408 4.75437 -1 ft 12 kts 32°
2026-04-18 09:26 52.31432 4.75590 -1 ft 19 kts 87°
2026-04-18 09:26 52.31441 4.75862 -1 ft 28 kts 86°
2026-04-18 09:27 52.31453 4.76194 -1 ft 30 kts 85°
2026-04-18 09:27 52.31466 4.76533 -1 ft 30 kts 86°
2026-04-18 09:27 52.31477 4.76859 -1 ft 26 kts 87°
2026-04-18 09:27 52.31479 4.77116 -1 ft 21 kts 101°
2026-04-18 09:28 52.31400 4.77308 -1 ft 21 kts 130°
2026-04-18 09:28 52.31297 4.77477 -1 ft 21 kts 151°
2026-04-18 09:28 52.31149 4.77498 -1 ft 22 kts 182°
2026-04-18 09:28 52.30992 4.77483 -1 ft 23 kts 184°
2026-04-18 09:29 52.30827 4.77466 -1 ft 24 kts 184°
2026-04-18 09:29 52.30717 4.77457 -1 ft 22 kts 178°
2026-04-18 09:29 52.30589 4.77525 -1 ft 19 kts 152°
2026-04-18 09:29 52.30479 4.77618 -1 ft 12 kts 153°
2026-04-18 09:30 52.30425 4.77646 -1 ft 7 kts 194°
2026-04-18 09:30 52.30376 4.77539 -2 ft 28 kts 238°
2026-04-18 09:30 52.30140 4.76923 -3 ft 96 kts 237°
2026-04-18 09:30 52.29684 4.75736 -2 ft 147 kts 238°
2026-04-18 09:31 52.29098 4.74208 315 ft 165 kts 238°
2026-04-18 09:31 52.28476 4.72603 1102 ft 164 kts 239°
2026-04-18 09:31 52.27830 4.70965 1574 ft 182 kts 239°
2026-04-18 09:31 52.26969 4.69257 1929 ft 208 kts 226°
2026-04-18 09:32 52.25877 4.67494 2413 ft 233 kts 226°
2026-04-18 09:32 52.24717 4.65561 3280 ft 241 kts 233°
2026-04-18 09:32 52.23961 4.63131 4373 ft 242 kts 251°
2026-04-18 09:32 52.23416 4.60513 5429 ft 245 kts 251°
2026-04-18 09:33 52.22864 4.57858 6365 ft 249 kts 251°
2026-04-18 09:33 52.22302 4.55163 7180 ft 252 kts 251°
2026-04-18 09:33 52.21733 4.52441 8023 ft 256 kts 250°
2026-04-18 09:33 52.21156 4.49678 8871 ft 259 kts 250°
2026-04-18 09:34 52.20573 4.46891 9714 ft 261 kts 250°
2026-04-18 09:34 52.19984 4.44078 10484 ft 265 kts 250°
2026-04-18 09:34 52.19357 4.41114 10793 ft 287 kts 250°
2026-04-18 09:34 52.18682 4.37926 11143 ft 305 kts 250°
2026-04-18 09:35 52.17986 4.34632 11805 ft 310 kts 250°
2026-04-18 09:35 52.17248 4.31308 12550 ft 313 kts 247°
2026-04-18 09:35 52.16403 4.28067 13282 ft 316 kts 246°
2026-04-18 09:35 52.15487 4.24747 14018 ft 319 kts 245°
2026-04-18 09:36 52.14568 4.21493 14650 ft 322 kts 245°
2026-04-18 09:36 52.13624 4.18168 15279 ft 325 kts 245°
2026-04-18 09:36 52.12663 4.14776 15922 ft 327 kts 245°
2026-04-18 09:36 52.11709 4.11392 16568 ft 330 kts 245°
2026-04-18 09:37 52.10767 4.08023 17211 ft 333 kts 245°
2026-04-18 09:37 52.09808 4.04581 17843 ft 336 kts 245°
2026-04-18 09:37 52.08837 4.01100 18458 ft 339 kts 245°
2026-04-18 09:37 52.07855 3.97598 18999 ft 341 kts 245°
2026-04-18 09:38 52.06867 3.94079 19572 ft 343 kts 245°
2026-04-18 09:38 52.05877 3.90556 20182 ft 343 kts 245°
2026-04-18 09:38 52.04885 3.87028 20769 ft 344 kts 245°
2026-04-18 09:38 52.03889 3.83493 21340 ft 345 kts 245°
2026-04-18 09:39 52.02887 3.79946 21859 ft 346 kts 244°
2026-04-18 09:39 52.01877 3.76389 22392 ft 348 kts 244°
2026-04-18 09:39 52.00863 3.72817 22922 ft 349 kts 244°
2026-04-18 09:39 51.99845 3.69225 23438 ft 351 kts 244°
2026-04-18 09:40 51.98822 3.65623 23885 ft 352 kts 244°
2026-04-18 09:40 51.97791 3.62008 24328 ft 353 kts 244°
2026-04-18 09:40 51.96759 3.58392 24754 ft 354 kts 244°
2026-04-18 09:40 51.95723 3.54766 25174 ft 355 kts 244°
2026-04-18 09:41 51.94680 3.51113 25595 ft 356 kts 244°
2026-04-18 09:41 51.93639 3.47471 25994 ft 357 kts 244°
2026-04-18 09:41 51.92591 3.43809 26398 ft 359 kts 244°
2026-04-18 09:41 51.91537 3.40137 26810 ft 360 kts 244°
2026-04-18 09:42 51.90477 3.36454 27169 ft 362 kts 244°
2026-04-18 09:42 51.89410 3.32754 27538 ft 364 kts 244°
2026-04-18 09:42 51.88339 3.29043 27916 ft 365 kts 244°
2026-04-18 09:42 51.87260 3.25311 28295 ft 366 kts 244°
2026-04-18 09:43 51.86178 3.21574 28663 ft 368 kts 244°
2026-04-18 09:43 51.85212 3.17739 29017 ft 370 kts 251°
2026-04-18 09:43 51.84679 3.13643 29368 ft 375 kts 260°
2026-04-18 09:43 51.84415 3.09441 29727 ft 377 kts 261°
2026-04-18 09:44 51.84153 3.05275 30058 ft 378 kts 261°
2026-04-18 09:44 51.83881 3.01043 30388 ft 379 kts 260°
2026-04-18 09:44 51.83603 2.96792 30641 ft 381 kts 260°
2026-04-18 09:44 51.83320 2.92531 30882 ft 383 kts 260°
2026-04-18 09:45 51.83035 2.88235 31098 ft 386 kts 261°
2026-04-18 09:45 51.82746 2.83897 31272 ft 390 kts 261°
2026-04-18 09:45 51.82454 2.79524 31500 ft 392 kts 261°
2026-04-18 09:45 51.82159 2.75152 31824 ft 391 kts 261°
2026-04-18 09:46 51.81861 2.70782 32141 ft 391 kts 261°
2026-04-18 09:46 51.81563 2.66417 32453 ft 391 kts 261°
2026-04-18 09:46 51.81265 2.62048 32770 ft 391 kts 261°
2026-04-18 09:46 51.80964 2.57671 33074 ft 391 kts 261°
2026-04-18 09:47 51.80662 2.53310 33385 ft 391 kts 261°
2026-04-18 09:47 51.80354 2.48914 33698 ft 391 kts 261°
2026-04-18 09:47 51.80045 2.44546 34011 ft 391 kts 260°
2026-04-18 09:47 51.79741 2.40229 34223 ft 390 kts 261°
2026-04-18 09:48 51.79133 2.31637 34226 ft 382 kts 261°
2026-04-18 09:48 51.78520 2.23127 34215 ft 380 kts 261°
2026-04-18 09:49 51.77967 2.14654 34233 ft 379 kts 262°
2026-04-18 09:49 51.77492 2.06189 34232 ft 379 kts 262°
2026-04-18 09:50 51.77011 1.97722 34234 ft 379 kts 262°
2026-04-18 09:50 51.76508 1.89264 34258 ft 379 kts 262°
2026-04-18 09:51 51.75988 1.80801 34251 ft 379 kts 262°
2026-04-18 09:51 51.75460 1.72341 34244 ft 379 kts 262°
2026-04-18 09:52 51.74928 1.63876 34239 ft 379 kts 262°
2026-04-18 09:52 51.74397 1.55417 34235 ft 379 kts 262°
2026-04-18 09:53 51.73849 1.46951 34233 ft 379 kts 261°
2026-04-18 09:53 51.73302 1.38492 34242 ft 379 kts 262°
2026-04-18 09:54 51.72747 1.30029 34250 ft 379 kts 261°
2026-04-18 09:54 51.72186 1.21572 34233 ft 379 kts 261°
2026-04-18 09:55 51.71621 1.13109 34225 ft 380 kts 262°
2026-04-18 09:55 51.71640 1.08894 34226 ft 384 kts 276°
2026-04-18 09:55 51.72471 1.04763 34223 ft 394 kts 293°
2026-04-18 09:56 51.75559 0.97344 34219 ft 400 kts 299°
2026-04-18 09:56 51.78763 0.89993 34228 ft 401 kts 299°
2026-04-18 09:57 51.81968 0.82609 34248 ft 402 kts 298°
2026-04-18 09:57 51.85180 0.75146 34231 ft 407 kts 298°
2026-04-18 09:58 51.88394 0.67661 34232 ft 403 kts 298°
2026-04-18 09:58 51.91583 0.60198 34234 ft 403 kts 298°
2026-04-18 09:59 51.94766 0.52721 34237 ft 403 kts 298°
2026-04-18 10:00 51.99517 0.41520 34244 ft 401 kts 298°
2026-04-18 10:00 52.02678 0.34053 34241 ft 401 kts 298°
2026-04-18 10:01 52.05832 0.26575 34247 ft 401 kts 298°
2026-04-18 10:01 52.08972 0.19087 34237 ft 401 kts 298°
2026-04-18 10:02 52.12109 0.11595 34223 ft 401 kts 298°
2026-04-18 10:02 52.15244 0.04094 34217 ft 401 kts 298°
2026-04-18 10:03 52.18359 -0.03358 34226 ft 400 kts 297°
2026-04-18 10:03 52.21484 -0.10866 34218 ft 400 kts 297°
2026-04-18 10:04 52.24596 -0.18377 34215 ft 400 kts 297°
2026-04-18 10:04 52.27723 -0.25982 33878 ft 408 kts 297°
2026-04-18 10:04 52.29297 -0.29812 33380 ft 404 kts 297°
2026-04-18 10:05 52.30859 -0.33603 32840 ft 400 kts 297°
2026-04-18 10:05 52.32403 -0.37352 32327 ft 396 kts 297°
2026-04-18 10:05 52.33931 -0.41064 31820 ft 391 kts 297°
2026-04-18 10:05 52.35441 -0.44738 31312 ft 387 kts 297°
2026-04-18 10:06 52.36933 -0.48383 30824 ft 384 kts 296°
2026-04-18 10:06 52.38412 -0.51998 30332 ft 380 kts 296°
2026-04-18 10:06 52.39870 -0.55572 29783 ft 376 kts 296°
2026-04-18 10:06 52.41310 -0.59104 29324 ft 370 kts 296°
2026-04-18 10:07 52.42729 -0.62591 28855 ft 364 kts 296°
2026-04-18 10:07 52.44121 -0.66020 28398 ft 359 kts 296°
2026-04-18 10:07 52.45494 -0.69407 27949 ft 354 kts 296°
2026-04-18 10:07 52.46845 -0.72736 27509 ft 348 kts 296°
2026-04-18 10:08 52.48176 -0.76023 27087 ft 343 kts 296°
2026-04-18 10:08 52.49489 -0.79266 26678 ft 338 kts 296°
2026-04-18 10:08 52.50779 -0.82461 26281 ft 334 kts 295°
2026-04-18 10:08 52.52051 -0.85619 25887 ft 329 kts 295°
2026-04-18 10:09 52.53302 -0.88730 25523 ft 325 kts 295°
2026-04-18 10:09 52.54543 -0.91819 25141 ft 322 kts 295°
2026-04-18 10:09 52.55770 -0.94882 24792 ft 320 kts 295°
2026-04-18 10:09 52.56991 -0.97938 24430 ft 320 kts 295°
2026-04-18 10:10 52.58214 -1.01002 24071 ft 321 kts 296°
2026-04-18 10:10 52.59439 -1.04063 23657 ft 320 kts 296°
2026-04-18 10:10 52.60644 -1.07068 23262 ft 316 kts 296°
2026-04-18 10:10 52.61845 -1.10061 22892 ft 311 kts 296°
2026-04-18 10:11 52.63028 -1.13016 22528 ft 307 kts 296°
2026-04-18 10:11 52.64195 -1.15948 22155 ft 305 kts 296°
2026-04-18 10:11 52.65349 -1.18860 21782 ft 303 kts 295°
2026-04-18 10:11 52.66496 -1.21765 21421 ft 302 kts 296°
2026-04-18 10:12 52.67639 -1.24653 21044 ft 300 kts 296°
2026-04-18 10:12 52.68781 -1.27523 20673 ft 299 kts 297°
2026-04-18 10:12 52.70118 -1.30193 20291 ft 305 kts 307°
2026-04-18 10:12 52.71797 -1.32503 19893 ft 329 kts 318°
2026-04-18 10:13 52.73770 -1.34535 19410 ft 336 kts 320°
2026-04-18 10:13 52.75763 -1.36556 19010 ft 336 kts 320°
2026-04-18 10:13 52.77753 -1.38571 18558 ft 335 kts 321°
2026-04-18 10:13 52.79734 -1.40582 18084 ft 333 kts 321°
2026-04-18 10:14 52.81694 -1.42580 17661 ft 329 kts 321°
2026-04-18 10:14 52.82979 -1.43901 17393 ft 327 kts 321°
2026-04-18 10:14 52.84901 -1.45891 16989 ft 324 kts 321°
2026-04-18 10:14 52.86812 -1.47852 16593 ft 323 kts 323°
2026-04-18 10:15 52.88796 -1.49623 16205 ft 323 kts 326°
2026-04-18 10:15 52.90781 -1.51340 15808 ft 321 kts 326°
2026-04-18 10:15 52.92737 -1.53070 15422 ft 317 kts 326°
2026-04-18 10:15 52.94687 -1.54749 15043 ft 318 kts 333°
2026-04-18 10:16 52.96822 -1.55775 14789 ft 320 kts 340°
2026-04-18 10:16 52.98963 -1.56647 14539 ft 314 kts 340°
2026-04-18 10:16 53.01065 -1.57505 14307 ft 307 kts 341°
2026-04-18 10:16 53.03117 -1.58386 14059 ft 302 kts 341°
2026-04-18 10:17 53.05130 -1.59262 13775 ft 296 kts 341°
2026-04-18 10:17 53.07106 -1.60124 13491 ft 291 kts 340°
2026-04-18 10:17 53.09055 -1.60975 13124 ft 290 kts 340°
2026-04-18 10:17 53.11011 -1.61834 12717 ft 290 kts 341°
2026-04-18 10:18 53.12963 -1.62699 12315 ft 290 kts 340°
2026-04-18 10:18 53.14912 -1.63567 11920 ft 290 kts 341°
2026-04-18 10:18 53.16860 -1.64443 11532 ft 290 kts 340°
2026-04-18 10:18 53.18810 -1.65324 11147 ft 290 kts 340°
2026-04-18 10:19 53.20760 -1.66204 10776 ft 290 kts 341°
2026-04-18 10:19 53.22681 -1.67081 10403 ft 290 kts 340°
2026-04-18 10:19 53.24625 -1.67974 10040 ft 289 kts 340°
2026-04-18 10:19 53.26534 -1.68945 9631 ft 284 kts 331°
2026-04-18 10:20 53.28180 -1.70632 9241 ft 271 kts 321°
2026-04-18 10:20 53.29681 -1.72413 8866 ft 258 kts 321°
2026-04-18 10:20 53.31112 -1.74126 8498 ft 248 kts 321°
2026-04-18 10:20 53.32483 -1.75763 8133 ft 236 kts 320°
2026-04-18 10:21 53.33797 -1.77328 7771 ft 228 kts 320°
2026-04-18 10:21 53.35078 -1.78859 7414 ft 224 kts 321°
2026-04-18 10:21 53.36344 -1.80370 7062 ft 223 kts 320°
2026-04-18 10:21 53.37594 -1.81867 6710 ft 219 kts 320°
2026-04-18 10:22 53.38821 -1.83331 6353 ft 215 kts 320°
2026-04-18 10:22 53.40038 -1.84773 6034 ft 213 kts 320°
2026-04-18 10:22 53.41236 -1.86191 5748 ft 209 kts 320°
2026-04-18 10:22 53.42425 -1.87572 5493 ft 206 kts 321°
2026-04-18 10:23 53.43602 -1.88923 5232 ft 204 kts 320°
2026-04-18 10:23 53.44769 -1.90263 4967 ft 203 kts 320°
2026-04-18 10:23 53.45936 -1.91599 4712 ft 203 kts 320°
2026-04-18 10:23 53.47107 -1.92936 4467 ft 203 kts 320°
2026-04-18 10:24 53.48096 -1.94488 4438 ft 187 kts 301°
2026-04-18 10:24 53.48619 -1.96368 4426 ft 171 kts 282°
2026-04-18 10:24 53.48711 -1.98274 4314 ft 165 kts 265°
2026-04-18 10:24 53.48410 -2.00120 4157 ft 166 kts 247°
2026-04-18 10:25 53.47746 -2.01739 3949 ft 170 kts 236°
2026-04-18 10:25 53.47003 -2.03290 3731 ft 170 kts 236°
2026-04-18 10:25 53.46265 -2.04830 3505 ft 169 kts 236°
2026-04-18 10:25 53.45534 -2.06359 3276 ft 167 kts 234°
2026-04-18 10:26 53.44799 -2.07894 3033 ft 169 kts 234°
2026-04-18 10:26 53.44062 -2.09431 2800 ft 168 kts 233°
2026-04-18 10:26 53.43322 -2.10974 2602 ft 170 kts 235°
2026-04-18 10:26 53.42596 -2.12484 2393 ft 159 kts 235°
2026-04-18 10:27 53.41926 -2.13879 2161 ft 152 kts 236°
2026-04-18 10:27 53.41270 -2.15248 1948 ft 150 kts 235°
2026-04-18 10:27 53.40630 -2.16577 1759 ft 140 kts 236°
2026-04-18 10:27 53.40037 -2.17811 1562 ft 133 kts 236°
2026-04-18 10:28 53.39457 -2.19018 1376 ft 131 kts 235°
2026-04-18 10:28 53.38886 -2.20206 1188 ft 131 kts 234°
2026-04-18 10:28 53.38312 -2.21391 977 ft 130 kts 234°
2026-04-18 10:28 53.37743 -2.22572 801 ft 130 kts 235°
2026-04-18 10:29 53.37179 -2.23745 635 ft 129 kts 233°
2026-04-18 10:29 53.36619 -2.24908 454 ft 129 kts 235°
2026-04-18 10:29 53.36061 -2.26067 289 ft 127 kts 236°
2026-04-18 10:29 53.35571 -2.27094 254 ft 91 kts 230°
2026-04-18 10:30 53.35274 -2.27700 239 ft 50 kts 231°
2026-04-18 10:30 53.35085 -2.28098 233 ft 33 kts 231°
2026-04-18 10:30 53.34989 -2.28337 233 ft 23 kts 247°
2026-04-18 10:30 53.34949 -2.28582 231 ft 16 kts 259°
2026-04-18 10:31 53.34959 -2.28724 229 ft 12 kts 318°
2026-04-18 10:31 53.35037 -2.28703 228 ft 12 kts 44°
2026-04-18 10:31 53.35083 -2.28610 229 ft 9 kts 51°
2026-04-18 10:31 53.35125 -2.28521 229 ft 11 kts 52°
2026-04-18 10:32 53.35170 -2.28428 228 ft 9 kts 51°
2026-04-18 10:32 53.35218 -2.28328 232 ft 17 kts 51°
2026-04-18 10:32 53.35315 -2.28206 234 ft 16 kts 24°
2026-04-18 10:32 53.35411 -2.28162 236 ft 12 kts 11°
2026-04-18 10:33 53.35494 -2.28122 236 ft 13 kts 26°
2026-04-18 10:33 53.35565 -2.28023 236 ft 14 kts 49°
2026-04-18 10:33 53.35616 -2.27926 240 ft 11 kts 40°
2026-04-18 10:33 53.35711 -2.27880 245 ft 17 kts
2026-04-18 10:34 53.35824 -2.27861 251 ft 17 kts
2026-04-18 10:34 53.35948 -2.27867 255 ft 19 kts 343°
2026-04-18 10:34 53.36056 -2.27996 255 ft 20 kts 318°
2026-04-18 10:34 53.36157 -2.28154 255 ft 18 kts 314°
2026-04-18 10:35 53.36234 -2.28285 255 ft 13 kts 315°
2026-04-18 10:35 53.36282 -2.28366 255 ft 9 kts 315°
2026-04-18 10:35 53.36317 -2.28425 255 ft 7 kts 315°
2026-04-18 10:35 53.36375 -2.28485 255 ft 13 kts 335°
2026-04-18 10:36 53.36460 -2.28564 255 ft 15 kts 322°
2026-04-18 10:36 53.36538 -2.28690 255 ft 14 kts 315°
2026-04-18 10:36 53.36612 -2.28782 255 ft 14 kts 356°
2026-04-18 10:36 53.36684 -2.28693 255 ft 11 kts 44°
2026-04-18 10:37 53.36698 -2.28629 255 ft 5 kts 112°
2026-04-18 10:37 53.36669 -2.28576 255 ft 7 kts 135°
2026-04-18 10:37 53.36651 -2.28546 255 ft 1 kts 135°
2026-04-18 10:40 53.36651 -2.28545 255 ft 0 kts 135°